South Paris, Maine, United States (04281)
Lat: 44.22N, Lon: 70.51W
Wx Zone: MEZ012
Local Info
Past Weather Observations for Monday, November 17, 2014

NOTE: This archive is for the closest National Weather Service station to South Paris. Information may differ from the station used for current weather conditions.

Click here for Long-term Archive

Time Weather Temperature Dewpoint Humidity Pressure Winds Precip Visibility
23:55
Overcast
34°F / 1°C 30°F / -1°C 87% 29.42 in
(996 mb)
Calm - 9SM
23:35
Overcast
34°F / 1°C 30°F / -1°C 87% 29.39 in
(995 mb)
Calm - 9SM
23:15
Overcast
34°F / 1°C 30°F / -1°C 87% 29.42 in
(996 mb)
Calm - 9SM
22:55
Overcast
34°F / 1°C 30°F / -1°C 87% 29.42 in
(996 mb)
Calm - 10SM
22:35
Overcast
34°F / 1°C 30°F / -1°C 87% 29.42 in
(996 mb)
Calm - 10SM
22:15
Overcast
34°F / 1°C 30°F / -1°C 87% 29.42 in
(996 mb)
Calm - 10SM
21:55
Overcast
34°F / 1°C 30°F / -1°C 87% 29.42 in
(996 mb)
Calm - 10SM
21:35
Overcast
34°F / 1°C 30°F / -1°C 87% 29.42 in
(996 mb)
NNW 3.5 mph
(NNW 6 kph)
- 10SM
21:15
Overcast
34°F / 1°C 30°F / -1°C 87% 29.44 in
(997 mb)
NNW 3.5 mph
(NNW 6 kph)
- 10SM
20:55
Overcast
34°F / 1°C 30°F / -1°C 87% 29.44 in
(997 mb)
NNW 4.6 mph
(NNW 7 kph)
0.02 in
(0.51 mm)
10SM
20:35
Overcast
34°F / 1°C 30°F / -1°C 87% 29.44 in
(997 mb)
N 6.9 mph
(N 11 kph)
0.02 in
(0.51 mm)
9SM
20:15
Overcast
34°F / 1°C 30°F / -1°C 87% 29.47 in
(998 mb)
NNW 4.6 mph
(NNW 7 kph)
0.01 in
(0.25 mm)
10SM
19:55
Overcast
34°F / 1°C 30°F / -1°C 87% 29.47 in
(998 mb)
NNW 5.8 mph
(NNW 9 kph)
0.03 in
(0.76 mm)
10SM
19:35
Overcast
34°F / 1°C 30°F / -1°C 87% 29.5 in
(999 mb)
NNW 4.6 mph
(NNW 7 kph)
0.03 in
(0.76 mm)
6SM
19:15
Overcast
34°F / 1°C 30°F / -1°C 87% 29.5 in
(999 mb)
NNW 4.6 mph
(NNW 7 kph)
- 5SM
18:55
Overcast
34°F / 1°C 30°F / -1°C 87% 29.5 in
(999 mb)
NNW 5.8 mph
(NNW 9 kph)
0.04 in
(1.02 mm)
5SM
18:35
Overcast
34°F / 1°C 30°F / -1°C 87% 29.5 in
(999 mb)
N 5.8 mph
(N 9 kph)
0.03 in
(0.76 mm)
5SM
18:15
Overcast
34°F / 1°C 30°F / -1°C 87% 29.53 in
(1000 mb)
NNW 6.9 mph
(NNW 11 kph)
0.01 in
(0.25 mm)
9SM
17:55
Overcast
34°F / 1°C 30°F / -1°C 87% 29.53 in
(1000 mb)
N 5.8 mph
(N 9 kph)
0.02 in
(0.51 mm)
10SM
17:35
Overcast
34°F / 1°C 30°F / -1°C 87% 29.53 in
(1000 mb)
N 6.9 mph
(N 11 kph)
0.01 in
(0.25 mm)
10SM
17:15
Overcast
34°F / 1°C 30°F / -1°C 87% 29.56 in
(1001 mb)
N 9.2 mph
(N 15 kph)
- 10SM
16:55
Overcast
34°F / 1°C 30°F / -1°C 87% 29.59 in
(1002 mb)
N 8.1 mph
(N 13 kph)
0.06 in
(1.52 mm)
10SM
16:35
Overcast
34°F / 1°C 30°F / -1°C 87% 29.62 in
(1003 mb)
N 6.9 mph
(N 11 kph)
0.05 in
(1.27 mm)
7SM
16:15
Overcast
34°F / 1°C 30°F / -1°C 87% 29.62 in
(1003 mb)
N 8.1 mph
(N 13 kph)
0.02 in
(0.51 mm)
4SM
15:55
Overcast
34°F / 1°C 30°F / -1°C 87% 29.62 in
(1003 mb)
N 6.9 mph
(N 11 kph)
0.04 in
(1.02 mm)
3SM
15:35
Overcast
34°F / 1°C 30°F / -1°C 87% 29.65 in
(1004 mb)
N 9.2 mph
(N 15 kph)
0.02 in
(0.51 mm)
3SM
15:15
Overcast
34°F / 1°C 30°F / -1°C 87% 29.65 in
(1004 mb)
N 11.5 mph
(N 19 kph)
0.01 in
(0.25 mm)
4SM
14:55
Overcast
34°F / 1°C 30°F / -1°C 87% 29.65 in
(1004 mb)
NE 9.2 mph
(NE 15 kph)
0.03 in
(0.76 mm)
8SM
14:35
Overcast
34°F / 1°C 30°F / -1°C 87% 29.68 in
(1005 mb)
NNE 11.5 mph
(NNE 19 kph)
0.01 in
(0.25 mm)
3SM
14:15
Overcast
34°F / 1°C 30°F / -1°C 87% 29.71 in
(1006 mb)
N 8.1 mph
(N 13 kph)
- 9SM
13:55
Overcast
34°F / 1°C 30°F / -1°C 87% 29.71 in
(1006 mb)
NE 9.2 mph
(NE 15 kph)
0.08 in
(2.03 mm)
7SM
13:35
Overcast
34°F / 1°C 30°F / -1°C 87% 29.74 in
(1007 mb)
NNE 9.2 mph
(NNE 15 kph)
0.07 in
(1.78 mm)
3SM
13:15
Overcast
34°F / 1°C 30°F / -1°C 87% 29.8 in
(1009 mb)
N 3.5 mph
(N 6 kph)
0.04 in
(1.02 mm)
1SM
12:55
Overcast
34°F / 1°C 30°F / -1°C 87% 29.8 in
(1009 mb)
N 3.5 mph
(N 6 kph)
0.05 in
(1.27 mm)
2 1/2SM
12:35
Overcast
34°F / 1°C 30°F / -1°C 87% 29.8 in
(1009 mb)
N 5.8 mph
(N 9 kph)
0.02 in
(0.51 mm)
2 1/2SM
12:15
Overcast
34°F / 1°C 30°F / -1°C 87% 29.83 in
(1010 mb)
NE 4.6 mph
(NE 7 kph)
0.01 in
(0.25 mm)
2 1/2SM
11:55
Overcast
34°F / 1°C 30°F / -1°C 87% 29.83 in
(1010 mb)
NE 3.5 mph
(NE 6 kph)
0.05 in
(1.27 mm)
2SM
11:35
Overcast
34°F / 1°C 30°F / -1°C 87% 29.86 in
(1011 mb)
ENE 5.8 mph
(ENE 9 kph)
0.04 in
(1.02 mm)
2SM
11:15
Overcast
34°F / 1°C 30°F / -1°C 87% 29.89 in
(1012 mb)
Calm 0.02 in
(0.51 mm)
3SM
10:55
Overcast
34°F / 1°C 28°F / -2°C 81% 29.92 in
(1013 mb)
Calm 0.06 in
(1.52 mm)
5SM
10:35
Overcast
34°F / 1°C 28°F / -2°C 81% 29.92 in
(1013 mb)
E 4.6 mph
(E 7 kph)
0.04 in
(1.02 mm)
4SM
10:15
Overcast
32°F / 0°C 28°F / -2°C 87% 29.95 in
(1014 mb)
NE 4.6 mph
(NE 7 kph)
0.02 in
(0.51 mm)
4SM
09:55
Overcast
32°F / 0°C 28°F / -2°C 87% 29.98 in
(1015 mb)
NE 4.6 mph
(NE 7 kph)
0.05 in
(1.27 mm)
5SM
09:35
Overcast
32°F / 0°C 28°F / -2°C 87% 29.98 in
(1015 mb)
NE 4.6 mph
(NE 7 kph)
0.02 in
(0.51 mm)
4SM
09:15
Overcast
32°F / 0°C 28°F / -2°C 87% 29.98 in
(1015 mb)
Calm - 3SM
08:55
Overcast
32°F / 0°C 28°F / -2°C 87% 30.01 in
(1016 mb)
Calm - 4SM
08:35
Overcast
32°F / 0°C 28°F / -2°C 87% 30.01 in
(1016 mb)
Calm - 1 3/4SM
08:15
Overcast
32°F / 0°C 28°F / -2°C 87% 30.01 in
(1016 mb)
Calm - 1 1/2SM
07:55
Overcast
32°F / 0°C 28°F / -2°C 87% 30.04 in
(1017 mb)
SE 4.6 mph
(SE 7 kph)
- 1SM
07:35
Overcast
32°F / 0°C 28°F / -2°C 87% 30.04 in
(1017 mb)
SSE 3.5 mph
(SSE 6 kph)
- 2SM
07:15
Overcast
32°F / 0°C 27°F / -3°C 80% 30.01 in
(1016 mb)
Calm - 10SM
06:55
Overcast
32°F / 0°C 27°F / -3°C 80% 30.01 in
(1016 mb)
E 3.5 mph
(E 6 kph)
- 2 1/2SM
06:35
Overcast
32°F / 0°C 27°F / -3°C 80% 30.01 in
(1016 mb)
Calm - 4SM
06:15
Overcast
34°F / 1°C 27°F / -3°C 75% 30.04 in
(1017 mb)
Calm - 10SM
05:55
Overcast
32°F / 0°C 27°F / -3°C 80% 30.04 in
(1017 mb)
Calm - 10SM
05:35
Overcast
32°F / 0°C 27°F / -3°C 80% 30.04 in
(1017 mb)
Calm - 10SM
05:15
Overcast
32°F / 0°C 25°F / -4°C 75% 30.06 in
(1018 mb)
Calm - 10SM
04:55
Overcast
32°F / 0°C 25°F / -4°C 75% 30.06 in
(1018 mb)
Calm - 10SM
04:35
Mostly Cloudy
32°F / 0°C 25°F / -4°C 75% 30.06 in
(1018 mb)
N 3.5 mph
(N 6 kph)
- 10SM
04:15
Partly Cloudy
32°F / 0°C 23°F / -5°C 69% 30.06 in
(1018 mb)
Calm - 10SM
03:55
Clear
34°F / 1°C 25°F / -4°C 70% 30.06 in
(1018 mb)
Calm - 10SM
03:35
Clear
34°F / 1°C 25°F / -4°C 70% 30.06 in
(1018 mb)
Calm - 10SM
03:15
Partly Cloudy
34°F / 1°C 23°F / -5°C 65% 30.06 in
(1018 mb)
S 3.5 mph
(S 6 kph)
- 10SM
02:55
Mostly Cloudy
34°F / 1°C 23°F / -5°C 65% 30.06 in
(1018 mb)
Calm - 10SM
02:35
Overcast
36°F / 2°C 23°F / -5°C 60% 30.06 in
(1018 mb)
SE 4.6 mph
(SE 7 kph)
- 10SM
02:15
Overcast
36°F / 2°C 25°F / -4°C 65% 30.06 in
(1018 mb)
Calm - 10SM
01:55
Overcast
36°F / 2°C 23°F / -5°C 60% 30.06 in
(1018 mb)
Calm - 10SM
01:35
Overcast
36°F / 2°C 23°F / -5°C 60% 30.06 in
(1018 mb)
S 5.8 mph
(S 9 kph)
- 10SM
01:15
Overcast
36°F / 2°C 23°F / -5°C 60% 30.06 in
(1018 mb)
S 5.8 mph
(S 9 kph)
- 10SM
00:55
Overcast
36°F / 2°C 25°F / -4°C 65% 30.06 in
(1018 mb)
S 5.8 mph
(S 9 kph)
- 10SM
00:35
Overcast
36°F / 2°C 23°F / -5°C 60% 30.06 in
(1018 mb)
Calm - 10SM
00:15
Overcast
36°F / 2°C 23°F / -5°C 60% 30.09 in
(1019 mb)
S 6.9 mph
(S 11 kph)
- 10SM
Time Weather Temperature Dewpoint Humidity Pressure Winds Precip Visibility


Weather for websites

WeatherForYou.com, LLC is not responsible for any damages or problems caused by this service. Current weather conditions are obtained from the closest station including government and personal stations which may have varying degrees of accuracy. Weather forecasts are derived from the NOAA NDFD. Like all things, this site belongs to Jesus Christ... He just trusts me to maintain it. If you have any questions or comments email webmaster@weatherforyou.com

Copyright © 2014, WeatherForYou.com LLC. All rights reserved.